Date,TemperatureHighF,TemperatureAvgF,TemperatureLowF,DewpointHighF,DewpointAvgF,DewpointLowF,HumidityHigh,HumidityAvg,HumidityLow,PressureMaxIn,PressureMinIn,WindSpeedMaxMPH,WindSpeedAvgMPH,GustSpeedMaxMPH,PrecipitationSumIn
2013-1-1,34.5,23.8,29.4,32.0,-4.4,-99.9,96,67,75,30.11,30.01,5,-265,9,0.00
2013-1-2,30.7,18.8,20.2,27.0,-12.1,-99.9,91,59,61,30.29,30.09,4,-268,7,0.00
2013-1-3,36.2,22.6,15.0,25.0,-0.1,-99.9,93,65,62,30.32,30.22,5,-175,12,0.07
2013-1-4,31.6,22.5,27.1,25.0,-6.5,-99.9,82,59,73,30.36,30.27,7,-241,13,0.00
2013-1-5,39.0,26.3,23.5,28.0,4.5,-99.9,92,66,60,30.45,30.23,5,-168,8,0.10
2013-1-6,39.3,28.7,31.7,33.0,2.8,-99.9,91,62,68,30.26,30.07,3,-210,7,0.14
2013-1-7,33.7,22.8,20.8,31.0,-1.8,-99.9,94,68,76,30.52,30.27,5,-218,7,0.00
2013-1-8,50.1,27.1,19.6,34.0,5.5,-99.9,95,68,51,30.47,30.34,5,-168,9,0.13
2013-1-9,49.4,30.1,23.9,45.0,8.5,-99.9,97,74,72,30.55,30.34,5,-199,11,0.08
2013-1-10,48.1,29.2,27.3,43.0,6.1,-99.9,98,72,73,30.64,30.30,2,-215,2,0.01
2013-1-11,61.7,40.8,39.2,55.0,18.6,-99.9,99,72,76,30.30,30.01,4,-199,11,0.12
2013-1-12,67.1,44.0,43.2,60.0,22.4,-99.9,100,74,75,30.13,29.97,6,-197,8,0.00
2013-1-13,66.4,48.3,44.7,57.0,26.3,-99.9,100,69,67,30.01,29.88,4,-176,7,0.19
2013-1-14,57.9,34.2,33.4,57.0,9.3,-99.9,97,69,76,30.35,29.92,5,-208,10,0.11
2013-1-15,34.4,25.3,31.6,33.0,-0.7,-99.9,97,68,84,30.37,30.08,2,-242,5,0.45
2013-1-16,37.5,16.5,34.0,37.0,-37.9,-99.9,100,45,97,30.09,29.89,4,-541,6,0.25
2013-1-17,36.3,20.6,30.0,31.0,-19.9,-99.9,93,54,81,30.23,30.09,4,-385,4,0.00
2013-1-18,33.0,22.5,22.0,28.0,-6.7,-99.9,92,54,49,30.57,30.23,5,-218,13,0.00
2013-1-19,54.6,37.2,24.5,27.0,4.2,-99.9,84,39,28,30.38,29.96,11,-142,18,0.00
2013-1-20,46.9,30.8,26.6,33.0,-4.5,-99.9,67,38,32,30.15,29.91,6,-198,16,0.00
2013-1-21,32.6,19.6,14.8,22.0,-12.2,-99.9,86,50,48,30.14,29.94,8,-238,12,0.00
2013-1-22,16.7,10.5,7.5,5.0,-14.0,-99.9,75,52,49,30.38,30.13,6,-149,12,0.00
2013-1-23,18.8,12.7,7.0,14.0,-11.5,-99.9,89,55,50,30.41,30.14,8,-157,11,0.00
2013-1-24,24.5,14.5,8.3,15.0,-9.2,-99.9,89,60,45,30.61,30.13,4,-166,7,0.00
2013-1-25,23.1,15.6,8.1,20.0,-5.4,-99.9,91,68,56,30.58,30.10,3,-168,6,0.00
2013-1-26,29.5,19.5,21.3,25.0,-7.1,-99.9,92,66,81,30.49,30.20,3,-242,6,0.00
2013-1-27,38.4,24.4,11.2,28.0,-0.1,-99.9,89,60,48,30.57,30.36,5,-177,5,0.13
2013-1-28,53.4,37.1,31.7,51.0,18.1,-99.9,99,77,81,30.36,30.11,6,-176,10,0.25
2013-1-29,67.5,42.0,44.6,56.0,14.8,-99.9,99,66,62,30.11,29.84,7,-238,12,0.01
2013-1-30,73.4,47.3,46.8,57.0,29.6,-99.9,98,76,56,29.83,29.31,10,-148,23,0.83
2013-1-31,46.7,22.1,23.8,45.0,-4.7,-99.9,94,62,60,29.93,29.29,9,-226,20,0.10
2013-2-1,24.6,13.4,8.3,23.0,-7.9,-99.9,93,66,63,30.43,29.87,5,-166,15,0.00
2013-2-2,26.0,16.5,3.1,25.0,-1.0,-99.9,94,72,60,30.43,30.06,9,-137,11,0.00
2013-2-3,29.7,20.3,20.1,26.0,-2.3,-99.9,94,70,78,30.13,29.88,2,-200,7,0.00
2013-2-4,33.2,21.2,19.8,32.0,-4.8,-99.9,97,64,62,30.17,29.93,4,-220,10,0.00
2013-2-5,37.1,26.8,31.9,36.0,4.9,-99.9,97,75,85,29.98,29.88,4,-208,13,0.00
2013-2-6,33.7,25.0,21.9,32.0,4.5,-99.9,97,75,86,30.36,29.98,1,-189,3,0.00
2013-2-7,47.5,29.7,20.2,35.0,12.4,-99.9,97,73,60,30.36,30.01,5,-135,5,0.00
2013-2-8,39.4,29.6,27.3,39.0,15.9,-99.9,97,80,80,30.23,29.85,6,-115,11,0.22
2013-2-9,34.9,21.7,19.5,24.0,-5.2,-99.9,93,60,55,30.43,30.24,4,-218,8,0.01
2013-2-10,53.2,32.2,17.1,37.0,8.2,-99.9,94,57,35,30.41,30.02,5,-135,7,0.08
2013-2-11,63.7,44.2,39.2,51.0,17.3,-99.9,95,53,27,30.00,29.75,10,-133,19,0.01
2013-2-12,49.7,35.9,27.9,30.0,12.0,-99.9,86,53,38,30.09,29.90,7,-114,13,0.00
2013-2-13,46.1,29.9,25.7,33.0,11.5,-99.9,96,71,57,29.97,29.65,4,-138,7,0.01
2013-2-14,43.6,28.5,29.8,33.0,3.7,-99.9,94,65,64,30.03,29.92,5,-207,11,0.07
2013-2-15,39.4,29.8,31.2,35.0,13.5,-99.9,96,77,67,30.10,29.98,3,-135,7,0.07
2013-2-16,31.2,23.4,20.5,29.0,6.0,-99.9,95,70,63,30.08,29.98,3,-126,7,0.00
2013-2-17,23.2,17.1,13.0,20.0,-2.3,-99.9,91,65,62,30.34,29.98,9,-136,10,0.00
2013-2-18,49.4,26.5,5.5,33.0,4.2,-99.9,89,60,43,30.40,29.99,6,-136,9,0.01
2013-2-19,46.0,32.6,27.4,39.0,11.3,-99.9,92,63,52,30.01,29.73,11,-144,17,0.06
2013-2-20,27.3,19.5,19.9,20.0,-1.8,-99.9,89,63,68,30.30,30.01,6,-155,12,0.00
2013-2-21,29.4,20.2,19.9,20.0,-1.8,-99.9,85,62,65,30.39,30.27,5,-159,7,0.00
2013-2-22,46.5,31.1,24.6,41.0,11.1,-99.9,95,71,61,30.30,30.02,4,-166,9,0.01
2013-2-23,54.7,36.7,30.0,45.0,18.4,-99.9,96,71,57,30.02,29.84,9,-135,10,0.00
2013-2-24,35.3,27.3,21.4,31.0,13.9,-99.9,96,76,71,30.20,29.88,5,-93,10,0.00
2013-2-25,45.0,28.1,19.3,28.0,2.8,-99.9,94,57,47,30.27,30.07,5,-169,9,0.00
2013-2-26,44.4,32.6,31.0,39.0,10.4,-99.9,95,65,55,30.09,29.59,15,-165,17,0.58
2013-2-27,41.8,33.4,32.9,39.0,16.0,-99.9,97,75,79,29.74,29.59,5,-146,10,0.30
2013-2-28,33.3,26.2,32.2,32.0,4.9,-99.9,96,74,87,29.87,29.69,9,-197,11,0.02
2013-3-1,33.9,24.3,28.2,32.0,-0.7,-99.9,96,67,77,30.00,29.86,3,-221,6,0.01
2013-3-2,30.2,24.0,25.4,26.0,6.8,-99.9,92,73,72,30.02,29.95,3,-138,6,0.00
2013-3-3,28.6,22.2,23.8,24.0,3.8,-99.9,91,71,72,30.09,29.99,3,-147,9,0.00
2013-3-4,38.7,25.0,20.2,23.0,3.0,-99.9,87,59,47,30.21,30.08,6,-134,8,0.01
2013-3-5,52.5,34.8,24.9,39.0,16.3,-99.9,93,63,44,30.15,29.63,9,-93,14,0.15
2013-3-6,37.7,30.0,30.9,35.0,16.3,-99.9,96,83,89,30.16,29.63,7,-125,10,0.30
2013-3-7,41.9,30.5,32.1,33.0,11.1,-99.9,96,70,66,30.31,30.16,4,-153,10,0.17
2013-3-8,37.3,30.3,27.0,31.0,14.4,-99.9,93,70,69,30.45,30.31,5,-104,7,0.00
2013-3-9,59.2,36.5,21.7,39.0,18.7,-99.9,96,65,32,30.45,30.22,4,-84,7,0.00
2013-3-10,70.4,49.6,34.3,37.0,20.4,-99.9,84,44,26,30.22,30.02,6,-97,9,0.00
2013-3-11,63.8,52.7,51.1,50.0,26.3,-99.9,94,46,30,30.04,29.74,12,-86,16,0.05
2013-3-12,52.0,33.0,36.6,51.0,12.1,-99.9,95,71,75,30.05,29.75,5,-177,9,0.14
2013-3-13,36.4,29.0,27.8,32.0,14.9,-99.9,95,74,54,30.21,29.99,5,-98,12,0.01
2013-3-14,40.3,29.0,24.3,24.0,10.9,-99.9,83,60,43,30.32,30.19,7,-80,11,0.00
2013-3-15,52.2,34.9,20.5,39.0,16.7,-99.9,90,63,49,30.22,29.87,10,-94,11,0.00
2013-3-16,59.9,44.3,41.0,51.0,30.5,-99.9,97,76,68,29.94,29.63,4,-97,10,0.05
2013-3-17,41.3,30.0,32.3,38.0,5.3,-99.9,92,62,63,30.17,29.94,5,-190,7,0.00
2013-3-18,48.3,37.6,34.9,44.0,25.9,-99.9,94,79,71,30.13,29.74,10,-80,16,0.77
2013-3-19,48.3,39.0,34.3,47.0,17.0,-99.9,96,55,27,30.02,29.73,9,-82,24,0.05
2013-3-20,44.3,33.2,28.6,22.0,7.0,-99.9,58,43,34,30.04,29.82,6,-88,17,0.00
2013-3-21,29.9,24.2,21.5,22.0,5.2,-99.9,86,56,44,30.02,29.89,9,-75,12,0.00
2013-3-22,41.4,28.3,25.0,21.0,5.2,-99.9,79,52,41,30.07,30.00,6,-110,12,0.00
2013-3-23,49.4,33.2,18.6,26.0,13.8,-99.9,91,57,32,30.10,29.99,5,-62,8,0.01
2013-3-24,44.9,32.8,29.0,35.0,18.3,-99.9,93,70,47,30.00,29.50,9,-74,14,0.08
2013-3-25,36.3,28.3,31.2,33.0,11.6,-99.9,100,79,88,29.79,29.48,7,-153,7,0.17
2013-3-26,40.8,35.2,31.9,34.0,32.2,31.0,97,89,71,30.14,29.79,4,0,9,0.38
2013-3-27,40.6,35.1,31.2,32.0,29.3,27.0,94,80,62,30.24,30.14,5,1,11,0.08
2013-3-28,42.4,37.4,33.7,33.0,28.7,26.0,85,71,59,30.31,30.21,5,1,9,0.00
2013-3-29,53.5,41.5,33.5,34.0,30.7,25.0,91,69,36,30.33,30.20,4,1,14,0.00
2013-3-30,56.3,43.2,28.0,35.0,29.0,23.0,91,62,30,30.28,30.05,4,0,7,0.00
2013-3-31,49.8,44.3,37.1,48.0,41.3,31.0,96,89,75,30.04,29.77,2,0,6,0.22
2013-4-1,48.5,42.7,30.4,45.0,33.6,17.0,97,73,39,30.06,29.79,6,1,10,0.00
2013-4-2,42.5,34.0,26.8,24.0,17.4,13.0,79,53,31,30.25,30.06,8,1,12,0.00
2013-4-3,46.5,33.4,21.0,24.0,17.7,13.0,90,57,28,30.43,30.25,10,1,10,0.00
2013-4-4,56.2,39.9,21.6,30.0,19.7,14.0,79,49,20,30.42,30.04,5,1,7,0.00
2013-4-5,61.1,45.2,29.0,37.0,29.1,24.0,87,57,31,30.16,29.94,4,1,11,0.00
2013-4-6,61.4,44.3,26.1,36.0,22.2,10.0,86,49,14,30.30,30.07,5,1,7,0.00
2013-4-7,71.9,62.2,47.3,48.0,40.5,31.0,78,46,36,30.07,29.93,13,2,22,0.00
2013-4-8,75.3,61.1,44.6,52.0,47.3,43.0,93,65,36,30.06,29.92,12,1,13,0.00
2013-4-9,79.8,64.0,48.3,57.0,52.5,46.0,91,69,43,30.11,29.94,6,1,16,0.00
2013-4-10,85.0,68.7,52.5,60.0,55.0,49.0,91,65,39,29.99,29.80,7,1,16,0.00
2013-4-11,80.7,67.6,52.0,61.0,55.3,50.0,95,68,40,29.86,29.56,11,1,12,0.00
2013-4-12,72.4,60.8,50.1,61.0,50.1,36.0,97,71,41,29.84,29.50,12,2,15,0.51
2013-4-13,61.9,50.1,39.3,39.0,34.7,31.0,78,58,33,30.01,29.83,11,2,15,0.00
2013-4-14,67.5,51.9,33.0,44.0,37.0,31.0,92,60,36,30.18,30.00,4,1,9,0.00
2013-4-15,65.9,60.5,54.6,51.0,48.5,42.0,83,65,47,30.12,30.00,9,1,11,0.00
2013-4-16,80.7,66.5,53.4,61.0,55.7,50.0,96,71,46,30.20,30.02,6,2,18,0.41
2013-4-17,70.5,61.8,54.9,62.0,58.7,54.0,99,90,72,30.20,30.08,2,0,4,0.00
2013-4-18,84.9,72.2,57.6,63.0,58.5,55.0,97,65,39,30.09,29.79,10,2,18,0.00
2013-4-19,73.8,60.5,45.2,62.0,51.7,34.0,93,74,56,29.88,29.49,10,2,22,0.21
2013-4-20,54.3,44.2,36.9,35.0,29.0,25.0,76,57,35,30.40,29.88,8,2,15,0.01
2013-4-21,57.2,44.2,28.4,31.0,26.5,20.0,90,55,25,30.58,30.40,6,1,9,0.00
2013-4-22,63.4,52.1,39.0,35.0,30.1,24.0,67,45,24,30.47,30.25,10,3,13,0.00
2013-4-23,71.9,56.1,37.9,50.0,37.4,33.0,85,54,26,30.27,29.98,6,1,10,0.00
2013-4-24,75.6,57.4,41.2,60.0,48.9,37.0,91,75,47,30.18,29.76,11,2,15,0.13
2013-4-25,58.1,45.7,31.8,39.0,33.9,30.0,96,67,35,30.35,30.18,8,1,12,0.00
2013-4-26,62.7,49.1,33.3,41.0,35.4,32.0,96,64,32,30.48,30.36,4,1,7,0.00
2013-4-27,74.6,57.2,34.9,48.0,36.8,31.0,87,53,21,30.40,30.16,7,1,9,0.00
2013-4-28,64.2,57.6,53.0,54.0,49.5,43.0,94,75,49,30.18,29.94,13,1,13,0.24
2013-4-29,66.7,58.5,51.6,56.0,52.9,49.0,94,82,65,30.02,29.95,4,0,7,0.02
2013-4-30,74.4,62.1,49.6,57.0,53.2,49.0,98,75,50,30.16,30.02,12,2,14,0.00
2013-5-1,77.5,65.2,53.0,55.0,49.9,40.0,90,61,37,30.27,30.16,9,2,11,0.00
2013-5-2,79.4,64.1,44.4,53.0,43.5,37.0,84,50,32,30.32,30.16,7,2,13,0.00
2013-5-3,75.1,62.5,45.9,47.0,42.7,33.0,86,52,25,30.22,30.12,11,2,17,0.00
2013-5-4,70.8,60.3,47.8,47.0,40.1,30.0,64,49,26,30.17,30.05,9,3,14,0.00
2013-5-5,72.8,60.7,45.9,44.0,36.5,27.0,85,45,19,30.12,29.98,11,3,21,0.00
2013-5-6,66.0,57.7,52.2,55.0,49.5,42.0,96,75,60,30.04,29.96,8,2,18,0.12
2013-5-7,63.4,58.6,53.6,60.0,56.2,53.0,98,92,78,29.98,29.91,5,0,9,0.43
2013-5-8,68.5,58.6,50.7,55.0,52.8,49.0,98,82,52,29.96,29.88,3,1,9,0.24
2013-5-9,75.3,60.5,50.6,60.0,55.1,50.0,98,84,48,30.03,29.93,4,0,7,0.02
2013-5-10,78.5,63.0,53.0,64.0,58.1,52.0,97,86,52,30.02,29.85,6,1,14,0.50
2013-5-11,63.9,60.0,54.0,61.0,57.3,50.0,98,91,78,29.86,29.78,4,1,13,0.74
2013-5-12,55.0,49.8,43.4,50.0,37.4,29.0,94,65,40,30.09,29.85,6,1,9,0.01
2013-5-13,51.8,43.5,34.0,38.0,33.5,29.0,94,70,45,30.21,30.09,4,1,12,0.00
2013-5-14,63.9,48.1,30.4,49.0,37.8,29.0,96,71,38,30.24,29.95,4,0,10,0.00
2013-5-15,87.4,69.7,51.3,63.0,55.9,46.0,91,64,40,29.95,29.75,6,1,15,0.00
2013-5-16,75.2,65.1,59.6,64.0,60.0,54.0,97,85,49,29.98,29.80,4,0,7,0.74
2013-5-17,81.3,68.4,59.6,63.0,59.1,52.0,98,76,37,30.10,29.98,4,0,5,0.00
2013-5-18,79.5,67.0,55.5,67.0,60.3,54.0,97,80,52,30.09,30.01,6,1,11,0.00
2013-5-19,79.4,69.1,60.9,67.0,63.2,59.0,95,82,64,30.07,29.94,4,0,6,0.00
2013-5-20,84.6,71.8,58.9,70.0,64.7,58.0,97,80,59,30.04,29.91,4,0,7,0.00
2013-5-21,83.8,72.8,61.3,72.0,66.4,61.0,98,82,59,29.97,29.82,4,1,8,0.00
2013-5-22,82.3,70.0,61.3,68.0,64.4,60.0,98,84,60,29.89,29.80,8,1,11,0.48
2013-5-23,76.3,65.4,60.3,67.0,62.1,59.0,99,90,61,29.88,29.78,5,1,9,0.30
2013-5-24,60.2,47.5,38.1,59.0,43.0,35.0,97,85,57,30.31,29.84,4,1,10,0.15
2013-5-25,61.1,46.9,31.8,42.0,37.6,31.0,97,73,46,30.38,30.24,5,1,8,0.00
2013-5-26,68.1,52.5,35.1,44.0,38.1,33.0,95,63,31,30.33,30.22,5,0,8,0.00
2013-5-27,65.2,53.2,40.2,56.0,47.3,39.0,94,81,64,30.29,30.12,3,0,5,0.00
2013-5-28,80.7,69.0,57.6,65.0,60.5,54.0,95,76,55,30.12,29.99,3,1,10,0.00
2013-5-29,84.5,70.6,57.4,66.0,61.7,56.0,97,76,49,30.13,30.04,7,1,12,0.00
2013-5-30,85.8,72.8,58.6,71.0,64.7,58.0,97,78,52,30.20,30.05,4,0,6,0.00
2013-5-31,86.5,73.5,59.6,69.0,64.3,59.0,97,76,47,30.12,29.97,4,0,7,0.00
2013-6-1,85.7,75.2,65.3,71.0,66.8,64.0,97,77,53,30.00,29.82,4,0,10,0.03
2013-6-2,75.1,70.6,62.0,68.0,65.1,61.0,96,83,66,29.87,29.79,5,1,11,0.22
2013-6-3,69.7,64.2,61.1,65.0,62.8,60.0,98,95,83,29.92,29.85,3,0,4,0.00
2013-6-12,73.0,64.4,71.8,72.0,52.2,-99.9,96,85,95,29.83,0.00,0,-111,1,0.00
2013-6-13,73.7,64.9,58.5,72.0,64.3,58.0,99,98,91,29.81,29.58,7,1,13,3.50
2013-6-14,71.2,62.2,54.3,63.0,58.9,54.0,100,90,66,30.05,29.78,5,0,7,0.01
2013-6-15,76.7,64.7,52.4,63.0,56.9,52.0,98,78,48,30.15,30.02,4,0,5,0.00
2013-6-16,72.7,67.0,60.9,68.0,63.6,58.0,95,89,82,30.03,29.94,3,0,10,0.00
2013-6-17,79.7,71.6,66.6,71.0,67.5,65.0,95,87,71,29.98,29.88,3,0,5,0.00
2013-6-18,72.8,67.1,64.0,68.0,65.2,63.0,98,93,78,29.92,29.83,5,0,7,0.39
2013-6-19,76.5,67.3,59.1,66.0,61.7,57.0,99,84,58,30.12,29.92,3,0,5,0.01
2013-6-20,80.5,67.7,53.2,65.0,59.0,52.0,98,76,51,30.21,30.12,5,1,6,0.00
2013-6-21,84.1,70.2,55.9,67.0,61.4,55.0,98,76,47,30.24,30.14,4,0,7,0.00
2013-6-22,85.0,73.3,60.7,71.0,65.8,60.0,98,79,55,30.21,30.05,6,1,11,0.00
2013-6-23,86.2,74.4,63.2,72.0,67.6,62.0,97,81,53,30.15,30.03,3,0,6,0.00
2013-6-24,85.0,74.3,64.1,73.0,68.3,63.0,98,82,61,30.13,30.00,4,0,6,0.00
2013-6-25,85.3,76.1,66.7,73.0,69.8,66.0,97,82,63,30.06,29.90,7,1,8,0.00
2013-6-26,79.7,72.9,68.5,74.0,70.2,67.0,97,91,77,29.91,29.80,3,0,7,0.10
2013-6-27,69.5,68.5,67.5,69.0,67.9,67.0,98,97,96,29.80,29.66,1,0,5,0.82
2013-6-28,78.2,68.6,63.6,72.0,67.2,63.0,98,95,78,29.65,29.53,4,1,9,0.26
2013-6-29,77.9,68.4,58.1,69.0,64.0,58.0,99,87,64,29.68,29.56,3,0,7,0.00
2013-6-30,85.8,74.0,61.1,71.0,66.1,60.0,98,78,52,29.78,29.67,4,1,7,0.00
2013-7-1,83.7,72.4,65.9,73.0,68.3,65.0,98,88,66,29.91,29.77,4,0,5,0.38
2013-7-2,82.3,74.1,67.1,73.0,69.5,67.0,99,86,65,30.04,29.91,4,0,7,0.20
2013-7-3,83.8,75.2,66.6,74.0,69.3,65.0,97,83,65,30.15,30.04,5,0,6,0.00
2013-7-4,86.2,75.6,67.7,75.0,70.0,66.0,98,84,62,30.20,30.07,4,1,6,0.02
2013-7-5,84.7,75.3,67.0,74.0,70.5,67.0,98,86,62,30.14,30.08,5,0,8,0.01
2013-7-6,88.7,77.5,67.0,76.0,70.7,67.0,98,81,58,30.16,29.99,4,1,6,0.00
2013-7-7,78.9,72.2,68.0,72.0,69.0,67.0,97,89,77,30.10,30.00,3,0,6,0.45
2013-7-8,81.8,70.5,63.7,71.0,67.3,63.0,98,90,68,30.14,30.06,5,1,9,0.03
2013-7-9,80.7,72.3,68.6,75.0,70.8,68.0,98,95,82,30.10,29.98,2,0,6,1.29
2013-7-10,84.5,73.9,66.4,76.0,70.8,66.0,99,90,72,30.04,29.84,4,1,11,0.80
2013-7-11,75.7,69.2,65.6,70.0,66.7,65.0,98,92,82,29.96,29.86,2,0,4,0.00
2013-7-12,75.5,66.9,62.2,69.0,64.0,61.0,98,91,69,30.08,29.93,6,0,7,0.09
2013-7-13,82.0,71.7,60.9,73.0,67.5,61.0,99,87,67,30.19,30.06,5,0,7,0.00
2013-7-14,88.0,78.1,67.8,74.0,69.6,67.0,97,77,54,30.26,30.18,6,1,8,0.00
2013-7-15,88.2,76.2,64.5,75.0,69.8,64.0,98,82,55,30.32,30.21,3,0,6,0.00
2013-7-16,88.9,76.5,66.6,78.0,71.8,66.0,98,86,65,30.30,30.20,3,0,6,0.01
2013-7-17,89.5,76.8,68.6,78.0,72.5,68.0,99,87,61,30.27,30.13,3,0,4,0.00
2013-7-18,90.4,79.0,69.2,79.0,73.6,68.0,98,85,60,30.16,30.01,2,0,5,0.00
2013-7-19,88.9,75.9,71.0,78.0,73.2,70.0,98,92,71,30.02,29.87,7,1,9,0.37
2013-7-20,84.6,74.1,69.4,76.0,71.3,69.0,97,91,73,29.93,29.81,5,1,7,0.26
2013-7-21,81.5,72.5,66.6,74.0,70.1,66.0,99,92,74,29.96,29.88,3,0,4,0.05
2013-7-22,82.0,73.3,67.0,75.0,70.7,67.0,99,92,73,29.92,29.75,5,0,8,0.27
2013-7-23,82.7,73.2,66.8,73.0,69.5,66.0,99,89,69,29.77,29.69,2,0,7,0.42
2013-7-24,72.4,66.5,57.5,66.0,62.3,56.0,98,87,68,29.96,29.72,3,0,6,0.00
2013-7-25,75.9,65.0,55.5,62.0,58.2,55.0,98,80,55,30.08,29.95,5,0,6,0.00
2013-7-26,80.2,65.5,51.7,62.0,56.8,51.0,98,76,43,30.11,30.00,3,0,6,0.00
2013-7-27,73.6,66.2,58.5,70.0,64.7,57.0,98,95,85,30.00,29.85,3,0,4,0.19
2013-7-28,76.9,68.0,57.3,66.0,62.3,55.0,98,83,58,30.04,29.85,5,1,12,0.39
2013-7-29,74.0,63.9,51.6,62.0,57.0,51.0,98,80,56,30.19,30.04,4,0,6,0.00
2013-7-30,77.5,67.7,57.7,67.0,61.7,57.0,97,82,60,30.23,30.14,2,0,4,0.00
2013-7-31,74.0,65.5,59.5,68.0,63.5,59.0,98,93,78,30.15,29.96,5,0,5,0.28
2013-8-1,77.7,68.9,63.2,72.0,67.0,62.0,99,94,76,29.96,29.86,3,0,7,0.03
2013-8-2,79.2,69.8,60.7,67.0,63.4,60.0,99,82,58,29.99,29.91,4,1,9,0.01
2013-8-3,72.1,67.0,63.8,68.0,65.2,62.0,98,94,84,29.98,29.94,2,0,3,0.13
2013-8-4,74.8,66.5,57.2,65.0,60.9,55.0,99,84,58,30.07,29.98,4,0,6,0.00
2013-8-5,75.5,64.1,52.1,62.0,57.1,51.0,98,80,51,30.13,30.00,3,0,7,0.00
2013-8-6,82.7,68.7,56.7,67.0,61.1,56.0,97,78,51,30.02,29.95,3,0,6,0.00
2013-8-7,85.7,71.8,63.6,75.0,68.3,62.0,99,89,66,29.97,29.88,3,0,9,0.60
2013-8-8,80.8,71.9,66.6,75.0,70.4,66.0,99,95,80,29.97,29.91,4,0,6,0.69
2013-8-9,76.8,72.5,70.2,74.0,72.0,70.0,99,98,91,30.00,29.89,2,0,8,0.60
2013-8-10,80.7,72.1,64.5,71.0,66.8,62.0,99,85,55,30.07,29.99,3,0,5,0.01
2013-8-11,83.1,71.3,61.2,73.0,66.1,61.0,99,85,60,30.09,29.99,3,0,5,0.00
2013-8-12,81.8,71.9,64.4,73.0,68.3,64.0,99,89,68,30.04,29.89,5,0,5,0.00
2013-8-13,76.8,69.2,63.2,71.0,66.4,57.0,99,91,77,29.93,29.79,3,0,6,2.08
2013-8-14,67.6,58.9,50.4,57.0,53.5,49.0,98,83,62,30.16,29.93,2,0,5,0.00
2013-8-15,73.3,60.0,48.9,61.0,53.9,48.0,98,82,52,30.21,30.09,3,0,5,0.00
2013-8-16,78.0,64.6,52.1,64.0,57.4,51.0,98,80,51,30.16,30.10,3,0,5,0.00
2013-8-17,75.4,65.8,54.3,65.0,58.7,53.0,97,80,53,30.23,30.16,7,1,9,0.00
2013-8-18,73.6,67.0,62.0,69.0,64.6,61.0,98,92,80,30.20,30.12,4,0,6,0.14
2013-8-19,78.3,69.2,63.2,70.0,66.7,62.0,98,92,73,30.13,30.05,3,0,5,0.01
2013-8-20,79.4,68.3,59.5,70.0,64.1,59.0,99,87,63,30.19,30.10,3,0,5,0.00
2013-8-21,81.9,69.4,59.8,74.0,65.9,59.0,99,89,72,30.18,30.07,3,0,6,0.05
2013-8-22,79.7,71.6,65.5,73.0,68.7,65.0,98,91,78,30.12,29.98,4,1,8,0.01
2013-8-23,76.0,69.0,60.7,69.0,66.0,60.0,98,90,65,30.12,29.97,7,0,7,0.81
2013-8-24,78.8,66.9,56.0,67.0,61.3,56.0,98,84,52,30.30,30.13,3,0,5,0.00
2013-8-25,78.6,66.7,56.2,67.0,61.4,55.0,98,84,59,30.39,30.24,3,0,6,0.00
2013-8-26,80.8,69.0,57.1,70.0,63.5,56.0,99,84,63,30.28,30.07,5,0,8,0.00
2013-8-27,77.3,71.1,65.6,74.0,69.5,65.0,98,95,87,30.06,29.94,4,0,4,0.04
2013-8-28,75.7,72.5,68.6,75.0,72.1,68.0,99,98,95,29.96,29.80,3,0,6,0.64
2013-8-29,82.0,74.5,68.5,74.0,71.2,68.0,99,90,70,29.99,29.87,2,0,4,0.00
2013-8-30,83.4,73.0,62.9,75.0,68.8,62.0,99,87,66,30.00,29.83,3,0,6,0.00
2013-8-31,81.0,73.0,66.5,73.0,69.1,66.0,99,88,69,29.86,29.78,4,0,7,0.00
2013-9-1,79.1,72.0,65.8,72.0,68.5,65.0,99,89,73,29.84,29.76,3,0,6,0.00
2013-9-2,79.8,71.3,65.8,74.0,69.2,65.0,99,93,78,29.84,29.75,5,0,9,1.26
2013-9-3,74.6,67.4,62.1,66.0,63.4,59.0,99,88,65,30.00,29.82,3,0,7,0.00
2013-9-26,59.5,54.7,51.8,56.0,52.9,51.0,96,93,88,30.07,30.03,0,0,0,0.00
2013-9-27,72.8,58.6,46.0,60.0,53.2,45.0,98,84,52,30.19,30.07,3,0,4,0.00
2013-9-28,72.2,60.5,51.1,60.0,54.6,50.0,97,82,59,30.25,30.14,3,0,6,0.00
2013-9-29,71.9,60.6,51.4,63.0,55.6,50.0,96,84,63,30.15,30.01,3,0,5,0.00
2013-9-30,69.3,59.7,52.7,64.0,57.7,52.0,98,93,80,30.07,30.00,2,0,3,0.00
2013-10-1,74.4,62.5,53.6,65.0,59.0,53.0,99,89,67,30.12,30.03,2,0,5,0.00
2013-10-2,76.9,64.1,53.9,67.0,60.3,53.0,99,88,66,30.14,30.05,3,0,5,0.00
2013-10-3,78.4,66.6,57.5,70.0,63.2,57.0,99,89,69,30.12,30.02,2,0,5,0.00
2013-10-4,79.3,68.2,61.6,70.0,65.0,61.0,99,90,66,30.13,30.03,5,0,7,0.00
2013-10-5,80.5,69.0,59.6,71.0,65.0,59.0,99,88,66,30.11,29.98,4,0,8,0.00
2013-10-6,84.2,71.3,60.8,68.0,64.1,60.0,98,80,50,29.97,29.77,5,0,9,0.00
2013-10-7,68.4,56.6,44.4,63.0,52.0,43.0,97,85,63,30.14,29.68,3,0,12,0.37
2013-10-8,66.2,52.0,40.0,52.0,45.7,39.0,98,81,50,30.31,30.14,6,1,11,0.00
2013-10-9,68.5,53.2,41.6,52.0,44.7,41.0,98,76,38,30.31,30.23,4,1,10,0.00
2013-10-10,70.4,60.1,52.1,60.0,52.0,43.0,88,75,64,30.22,30.05,8,1,10,0.00
2013-10-11,59.1,57.1,54.2,57.0,54.9,53.0,96,92,88,30.06,30.02,4,0,4,0.00
2013-10-12,72.9,63.8,56.5,64.0,59.7,56.0,97,87,71,30.13,30.04,7,1,11,0.00
2013-10-13,73.6,65.3,59.3,64.0,58.9,56.0,91,80,65,30.22,30.13,6,1,8,0.00
2013-10-14,66.4,61.0,57.4,62.0,58.6,56.0,96,91,85,30.26,30.19,2,0,5,0.00
2013-10-15,72.7,61.3,51.3,63.0,57.0,51.0,99,87,63,30.21,30.00,3,0,4,0.00
2013-10-16,70.2,61.4,52.4,61.0,56.6,51.0,96,85,70,30.00,29.89,4,0,9,0.00
2013-10-17,65.3,58.9,49.7,64.0,58.1,49.0,98,97,93,29.93,29.68,4,0,9,0.35
2013-10-18,59.2,50.1,40.7,50.0,44.4,39.0,98,82,55,30.07,29.93,4,0,8,0.00
2013-10-19,54.4,45.3,37.1,49.0,43.0,36.0,98,92,80,30.01,29.82,4,1,10,0.03
2013-10-20,56.4,46.3,38.1,44.0,39.9,37.0,96,80,52,30.11,30.00,6,1,12,0.00
2013-10-21,64.9,48.6,34.7,45.0,39.7,34.0,97,75,39,30.12,29.92,6,1,11,0.00
2013-10-22,55.3,46.5,35.9,48.0,41.3,34.0,95,83,61,29.99,29.89,6,1,9,0.20
2013-10-23,39.6,38.0,35.8,39.0,37.0,35.0,97,96,94,30.02,29.78,3,0,5,0.83
2013-10-24,39.9,36.2,31.1,37.0,35.0,30.0,97,95,80,30.23,30.00,5,0,6,0.12
2013-10-25,43.0,34.0,29.2,36.0,32.0,29.0,98,92,72,30.43,30.23,3,0,6,0.00
2013-10-26,50.3,39.9,27.5,33.0,29.3,27.0,97,70,42,30.37,29.99,8,1,14,0.00
2013-10-27,45.9,45.7,45.0,33.0,32.4,32.0,63,60,58,30.05,30.04,1,1,6,0.00